FW0860 Weather Reports


Display with metric or nautical units.
time (UTC)temp
F
wind
direction
speed
MPH
gust
MPH
rain 1hr
in
rain 24hr
in
rain mn
in
humidity
%
barometer
mb
20200403081414 60 176 0.0 0.0 0.00 0.00 0.00 47 1010.3
20200403081317 60 175 0.0 0.0 0.00 0.00 0.00 47 1010.3
20200403080821 60 175 0.0 0.0 0.00 0.00 0.00 47 1010.2
20200403080524 60 175 0.0 0.0 0.00 0.00 0.00 47 1010.2
20200403080336 60 175 0.0 0.0 0.00 0.00 0.00 46 1010.3
20200403080219 60 175 0.0 0.0 0.00 0.00 0.00 46 1010.3
20200403075821 60 175 0.0 0.0 0.00 0.00 0.00 46 1010.2
20200403075724 60 175 0.0 0.0 0.00 0.00 0.00 46 1010.2
20200403075634 60 175 0.0 0.0 0.00 0.00 0.00 46 1010.3
20200403075424 60 175 0.0 1.0 0.00 0.00 0.00 46 1010.3
20200403075119 60 175 0.0 1.0 0.00 0.00 0.00 46 1010.2
20200403074927 60 175 0.0 1.0 0.00 0.00 0.00 46 1010.2
20200403074836 60 175 0.0 1.0 0.00 0.00 0.00 46 1010.2
20200403074719 61 175 0.0 1.0 0.00 0.00 0.00 46 1010.3
20200403074412 61 175 0.0 0.0 0.00 0.00 0.00 46 1010.3
20200403074012 61 175 0.0 0.0 0.00 0.00 0.00 45 1010.3
20200403073922 61 176 0.0 0.0 0.00 0.00 0.00 45 1010.3
20200403073828 61 175 0.0 0.0 0.00 0.00 0.00 45 1010.3
20200403073710 61 175 0.0 0.0 0.00 0.00 0.00 45 1010.3
20200403073612 61 175 0.0 0.0 0.00 0.00 0.00 45 1010.2
20200403073328 62 175 0.0 0.0 0.00 0.00 0.00 44 1010.3
20200403073124 62 175 0.0 0.0 0.00 0.00 0.00 43 1010.4
20200403072936 62 176 0.0 0.0 0.00 0.00 0.00 43 1010.3
20200403072629 62 175 0.0 0.0 0.00 0.00 0.00 43 1010.3
20200403072513 62 175 0.0 0.0 0.00 0.00 0.00 42 1010.3
20200403072421 62 175 0.0 0.0 0.00 0.00 0.00 42 1010.3
20200403072324 62 175 0.0 0.0 0.00 0.00 0.00 42 1010.3
20200403072226 62 176 0.0 0.0 0.00 0.00 0.00 42 1010.3
20200403072113 62 176 0.0 0.0 0.00 0.00 0.00 42 1010.2
20200403071827 63 176 0.0 0.0 0.00 0.00 0.00 42 1010.3
20200403071525 63 176 0.0 0.0 0.00 0.00 0.00 42 1010.3
20200403071334 63 176 0.0 0.0 0.00 0.00 0.00 41 1010.3
20200403071217 63 175 0.0 0.0 0.00 0.00 0.00 41 1010.3
20200403071121 63 175 0.0 0.0 0.00 0.00 0.00 41 1010.3
20200403071022 63 175 0.0 0.0 0.00 0.00 0.00 42 1010.3
20200403070936 63 175 0.0 0.0 0.00 0.00 0.00 42 1010.3
20200403070819 63 175 0.0 2.0 0.00 0.00 0.00 42 1010.3
20200403070721 63 175 0.0 2.0 0.00 0.00 0.00 42 1010.3
20200403070532 63 175 0.0 2.0 0.00 0.00 0.00 42 1010.4
20200403070319 63 175 0.0 2.0 0.00 0.00 0.00 42 1010.3
20200403070229 63 175 0.0 2.0 0.00 0.00 0.00 42 1010.3
20200403070124 63 175 0.0 2.0 0.00 0.00 0.00 42 1010.4
20200403065714 64 175 1.0 2.0 0.00 0.00 0.00 41 1010.5
20200403065517 64 175 0.0 2.0 0.00 0.00 0.00 41 1010.4
20200403065328 64 175 1.0 2.0 0.00 0.00 0.00 41 1010.3
20200403065223 64 175 1.0 2.0 0.00 0.00 0.00 40 1010.4
20200403065026 64 179 1.0 2.0 0.00 0.00 0.00 40 1010.4
20200403064834 64 179 1.0 2.0 0.00 0.00 0.00 40 1010.4
20200403064717 64 179 0.0 0.0 0.00 0.00 0.00 40 1010.4
20200403064436 65 272 0.0 0.0 0.00 0.00 0.00 40 1010.3
20200403064319 65 277 0.0 0.0 0.00 0.00 0.00 40 1010.3
20200403064222 65 277 0.0 0.0 0.00 0.00 0.00 39 1010.3
20200403064012 65 277 0.0 0.0 0.00 0.00 0.00 39 1010.1
20200403063728 65 277 0.0 0.0 0.00 0.00 0.00 38 1010.2
20200403063521 65 277 0.0 0.0 0.00 0.00 0.00 38 1010.2
20200403063311 65 278 0.0 0.0 0.00 0.00 0.00 38 1010.1
20200403063214 65 277 0.0 0.0 0.00 0.00 0.00 38 1010.1
20200403063124 65 278 0.0 0.0 0.00 0.00 0.00 38 1010.2
20200403063027 65 278 0.0 0.0 0.00 0.00 0.00 38 1010.2
20200403062914 65 277 0.0 2.0 0.00 0.00 0.00 38 1010.1
20200403062727 65 277 0.0 2.0 0.00 0.00 0.00 38 1010.1
20200403062629 65 277 0.0 2.0 0.00 0.00 0.00 38 1010.1
20200403062511 65 278 0.0 2.0 0.00 0.00 0.00 38 1010.1
20200403062413 65 278 0.0 2.0 0.00 0.00 0.00 38 1010.1
20200403062211 65 278 0.0 2.0 0.00 0.00 0.00 38 1010.2
20200403062114 65 277 0.0 3.0 0.00 0.00 0.00 38 1010.1
20200403061927 65 278 0.0 3.0 0.00 0.00 0.00 38 1010.1
20200403061414 65 300 1.0 3.0 0.00 0.00 0.00 38 1010.1
20200403060920 65 242 0.0 3.0 0.00 0.00 0.00 38 1010.1
20200403060830 65 242 0.0 3.0 0.00 0.00 0.00 38 1010.1
20200403060712 65 242 0.0 3.0 0.00 0.00 0.00 38 1010.2
20200403060433 65 242 2.0 3.0 0.00 0.00 0.00 38 1010.2
20200403060016 65 242 1.0 3.0 0.00 0.00 0.00 38 1010.1
20200403055918 65 242 1.0 3.0 0.00 0.00 0.00 39 1010.0
20200403055731 65 242 0.0 3.0 0.00 0.00 0.00 39 1010.1
20200403055424 65 242 1.0 3.0 0.00 0.00 0.00 39 1010.1
20200403055216 65 242 1.0 3.0 0.00 0.00 0.00 39 1010.1
20200403055021 66 242 2.0 3.0 0.00 0.00 0.00 39 1010.1
20200403054932 66 242 2.0 3.0 0.00 0.00 0.00 39 1010.1
20200403054629 66 251 1.0 3.0 0.00 0.00 0.00 39 1010.1
20200403054511 66 255 0.0 1.0 0.00 0.00 0.00 39 1010.1
20200403054412 66 255 0.0 1.0 0.00 0.00 0.00 39 1010.1
20200403054228 66 255 0.0 1.0 0.00 0.00 0.00 39 1010.1
20200403054110 66 255 0.0 1.0 0.00 0.00 0.00 39 1010.1
20200403054013 66 255 0.0 1.0 0.00 0.00 0.00 39 1010.1
20200403053915 66 255 0.0 1.0 0.00 0.00 0.00 39 1010.0
20200403053825 66 255 0.0 3.0 0.00 0.00 0.00 38 1010.0
20200403053327 66 255 0.0 3.0 0.00 0.00 0.00 38 1010.1
20200403053229 66 255 0.0 3.0 0.00 0.00 0.00 38 1010.0
20200403053115 67 255 1.0 3.0 0.00 0.00 0.00 38 1010.0
20200403052927 67 255 0.0 3.0 0.00 0.00 0.00 37 1010.0
20200403052528 67 255 1.0 3.0 0.00 0.00 0.00 37 1009.9
20200403052314 67 255 1.0 3.0 0.00 0.00 0.00 36 1009.9
20200403052222 67 255 0.0 3.0 0.00 0.00 0.00 37 1009.9
20200403052012 67 255 1.0 3.0 0.00 0.00 0.00 37 1009.9
20200403051921 67 255 2.0 3.0 0.00 0.00 0.00 37 1010.0
20200403051822 67 255 1.0 3.0 0.00 0.00 0.00 37 1010.0
20200403051426 67 252 1.0 3.0 0.00 0.00 0.00 36 1010.0
20200403051328 68 252 0.0 3.0 0.00 0.00 0.00 36 1010.0
20200403051023 68 252 1.0 5.0 0.00 0.00 0.00 36 1009.9
20200403050926 68 252 1.0 5.0 0.00 0.00 0.00 36 1009.9
20200403050624 68 252 1.0 5.0 0.00 0.00 0.00 36 1009.9
20200403050527 68 250 1.0 5.0 0.00 0.00 0.00 36 1009.9
20200403050436 68 250 2.0 5.0 0.00 0.00 0.00 36 1009.9
20200403050226 68 241 3.0 5.0 0.00 0.00 0.00 35 1010.0
20200403050147 68 246 3.0 5.0 0.00 0.00 0.00 35 1010.0
20200403045712 68 236 3.0 5.0 0.00 0.00 0.00 35 1010.0
20200403045622 68 239 3.0 6.0 0.00 0.00 0.00 34 1010.0
20200403045524 69 233 3.0 6.0 0.00 0.00 0.00 34 1009.9
20200403045337 69 233 4.0 6.0 0.00 0.00 0.00 34 1010.0
20200403045218 69 243 4.0 7.0 0.00 0.00 0.00 33 1010.0
20200403045028 69 258 3.0 7.0 0.00 0.00 0.00 33 1010.0
20200403044724 69 233 4.0 7.0 0.00 0.00 0.00 33 1009.9
20200403044540 69 232 4.0 7.0 0.00 0.00 0.00 32 1009.9
20200403044322 70 255 3.0 7.0 0.00 0.00 0.00 32 1009.9
20200403044224 70 250 3.0 7.0 0.00 0.00 0.00 31 1009.9
20200403044134 70 253 4.0 9.0 0.00 0.00 0.00 31 1009.9
20200403044017 70 248 4.0 9.0 0.00 0.00 0.00 31 1009.9
20200403043918 70 237 4.0 9.0 0.00 0.00 0.00 31 1009.9
20200403043840 70 273 3.0 9.0 0.00 0.00 0.00 31 1009.9
20200403043719 70 238 4.0 9.0 0.00 0.00 0.00 30 1009.9
20200403043522 70 251 5.0 9.0 0.00 0.00 0.00 30 1009.8
20200403043433 70 224 5.0 9.0 0.00 0.00 0.00 30 1009.8
20200403043319 70 221 5.0 9.0 0.00 0.00 0.00 30 1009.8
20200403043220 70 209 5.0 9.0 0.00 0.00 0.00 29 1009.8
20200403042817 71 244 5.0 9.0 0.00 0.00 0.00 29 1009.7
20200403042730 71 260 5.0 9.0 0.00 0.00 0.00 29 1009.7
20200403042325 71 257 3.0 6.0 0.00 0.00 0.00 29 1009.8
20200403042225 71 250 3.0 6.0 0.00 0.00 0.00 29 1009.7
20200403042126 71 241 3.0 6.0 0.00 0.00 0.00 30 1009.6
20200403042035 71 243 3.0 6.0 0.00 0.00 0.00 30 1009.6
20200403041917 71 236 2.0 6.0 0.00 0.00 0.00 30 1009.6
20200403041819 71 236 1.0 4.0 0.00 0.00 0.00 29 1009.7
20200403041720 71 237 2.0 4.0 0.00 0.00 0.00 29 1009.6
20200403041632 71 237 3.0 4.0 0.00 0.00 0.00 29 1009.6
20200403041519 71 233 3.0 4.0 0.00 0.00 0.00 29 1009.6
20200403041421 71 239 2.0 4.0 0.00 0.00 0.00 30 1009.6
20200403041118 71 245 2.0 4.0 0.00 0.00 0.00 29 1009.5
20200403040720 72 240 2.0 5.0 0.00 0.00 0.00 28 1009.6
20200403040531 72 234 2.0 5.0 0.00 0.00 0.00 28 1009.5
20200403040322 72 234 2.0 5.0 0.00 0.00 0.00 28 1009.5
20200403040125 72 235 2.0 5.0 0.00 0.00 0.00 28 1009.5
20200403040016 72 233 2.0 5.0 0.00 0.00 0.00 28 1009.5
20200403035714 72 240 2.0 5.0 0.00 0.00 0.00 28 1009.5
20200403035219 72 225 2.0 5.0 0.00 0.00 0.00 28 1009.5
20200403035121 72 230 2.0 5.0 0.00 0.00 0.00 28 1009.4
20200403034418 72 229 3.0 5.0 0.00 0.00 0.00 28 1009.5
20200403034319 72 244 3.0 5.0 0.00 0.00 0.00 28 1009.4
20200403034117 72 226 3.0 5.0 0.00 0.00 0.00 27 1009.3
20200403034019 72 237 3.0 5.0 0.00 0.00 0.00 28 1009.3
20200403033920 72 235 3.0 5.0 0.00 0.00 0.00 28 1009.3
20200403033830 72 234 2.0 4.0 0.00 0.00 0.00 28 1009.3
20200403033712 72 237 1.0 4.0 0.00 0.00 0.00 28 1009.2
20200403033614 72 233 1.0 3.0 0.00 0.00 0.00 28 1009.2
20200403033314 72 240 0.0 2.0 0.00 0.00 0.00 28 1009.2
20200403032917 73 240 0.0 2.0 0.00 0.00 0.00 27 1009.1
20200403032514 73 240 1.0 2.0 0.00 0.00 0.00 27 1009.0
20200403032420 73 240 1.0 2.0 0.00 0.00 0.00 27 1009.0
20200403032331 73 240 0.0 2.0 0.00 0.00 0.00 27 1009.0
20200403032019 73 240 0.0 2.0 0.00 0.00 0.00 27 1009.0
20200403031816 73 240 0.0 2.0 0.00 0.00 0.00 27 1009.0
20200403031719 73 240 0.0 2.0 0.00 0.00 0.00 27 1009.0
20200403031621 73 240 0.0 2.0 0.00 0.00 0.00 27 1009.0
20200403031532 73 240 0.0 2.0 0.00 0.00 0.00 27 1009.0
20200403031414 73 240 0.0 2.0 0.00 0.00 0.00 27 1008.9
20200403031317 73 240 0.0 2.0 0.00 0.00 0.00 27 1008.8
20200403031222 73 240 0.0 2.0 0.00 0.00 0.00 27 1008.9
20200403031133 73 240 0.0 2.0 0.00 0.00 0.00 26 1008.9
20200403030918 73 240 0.0 2.0 0.00 0.00 0.00 27 1008.8
20200403030820 73 240 0.0 2.0 0.00 0.00 0.00 27 1008.8
20200403030713 73 240 0.0 2.0 0.00 0.00 0.00 27 1008.8
20200403030616 73 240 0.0 1.0 0.00 0.00 0.00 26 1008.8
20200403030429 73 240 0.0 1.0 0.00 0.00 0.00 26 1008.7
20200403030214 73 240 0.0 1.0 0.00 0.00 0.00 26 1008.8
20200403030132 74 240 0.0 1.0 0.00 0.00 0.00 26 1008.8
20200403030030 74 240 0.0 1.0 0.00 0.00 0.00 26 1008.7
20200403025913 74 240 0.0 1.0 0.00 0.00 0.00 26 1008.7
20200403025814 74 240 0.0 1.0 0.00 0.00 0.00 26 1008.7
20200403025715 74 240 0.0 1.0 0.00 0.00 0.00 26 1008.8
20200403025625 74 240 0.0 1.0 0.00 0.00 0.00 26 1008.8
20200403025511 74 240 0.0 1.0 0.00 0.00 0.00 26 1008.7
20200403025414 74 240 0.0 1.0 0.00 0.00 0.00 26 1008.6
20200403025323 74 240 0.0 1.0 0.00 0.00 0.00 26 1008.6
20200403025227 74 240 0.0 1.0 0.00 0.00 0.00 26 1008.6
20200403025129 74 240 0.0 1.0 0.00 0.00 0.00 26 1008.6
20200403025011 74 240 0.0 1.0 0.00 0.00 0.00 26 1008.5
20200403024828 74 240 0.0 1.0 0.00 0.00 0.00 26 1008.6
20200403024710 74 240 0.0 2.0 0.00 0.00 0.00 26 1008.6
20200403024612 74 240 0.0 2.0 0.00 0.00 0.00 26 1008.6
20200403024425 74 240 0.0 2.0 0.00 0.00 0.00 26 1008.6
20200403024312 74 240 0.0 2.0 0.00 0.00 0.00 26 1008.5
20200403024125 74 240 0.0 2.0 0.00 0.00 0.00 26 1008.6
20200403024028 74 240 0.0 2.0 0.00 0.00 0.00 25 1008.6
20200403023910 74 240 0.0 2.0 0.00 0.00 0.00 26 1008.4
20200403023816 74 240 0.0 2.0 0.00 0.00 0.00 26 1008.4
20200403023726 74 240 0.0 2.0 0.00 0.00 0.00 26 1008.4
20200403023628 74 240 1.0 2.0 0.00 0.00 0.00 26 1008.5
20200403023511 74 240 1.0 3.0 0.00 0.00 0.00 26 1008.4
20200403022926 74 240 0.0 3.0 0.00 0.00 0.00 26 1008.3
20200403022740 75 240 1.0 3.0 0.00 0.00 0.00 26 1008.4
20200403022516 75 240 1.0 3.0 0.00 0.00 0.00 26 1008.4
20200403022418 75 239 1.0 3.0 0.00 0.00 0.00 26 1008.3
20200403022328 75 239 0.0 3.0 0.00 0.00 0.00 26 1008.3
20200403022210 75 239 1.0 3.0 0.00 0.00 0.00 26 1008.3
20200403022113 75 239 1.0 3.0 0.00 0.00 0.00 26 1008.3
20200403022018 75 239 2.0 3.0 0.00 0.00 0.00 26 1008.2
20200403021813 75 241 1.0 3.0 0.00 0.00 0.00 26 1008.2
20200403021716 75 241 0.0 3.0 0.00 0.00 0.00 26 1008.2
20200403021618 75 241 1.0 3.0 0.00 0.00 0.00 26 1008.2
20200403021529 75 241 1.0 3.0 0.00 0.00 0.00 26 1008.2
20200403021130 76 241 2.0 4.0 0.00 0.00 0.00 25 1008.2
20200403021012 76 241 2.0 4.0 0.00 0.00 0.00 25 1008.2
20200403020830 76 241 2.0 5.0 0.00 0.00 0.00 25 1008.2
20200403020712 76 241 2.0 5.0 0.00 0.00 0.00 25 1008.1
20200403020516 76 238 2.0 5.0 0.00 0.00 0.00 25 1008.2
20200403020313 76 238 2.0 5.0 0.00 0.00 0.00 24 1008.2
20200403020129 76 227 3.0 5.0 0.00 0.00 0.00 24 1008.2
20200403015838 77 237 3.0 5.0 0.00 0.00 0.00 24 1008.1
20200403015624 77 243 2.0 5.0 0.00 0.00 0.00 24 1008.2
20200403015319 77 241 4.0 6.0 0.00 0.00 0.00 23 1008.2
20200403015220 77 231 3.0 6.0 0.00 0.00 0.00 23 1008.2
20200403015037 77 238 3.0 6.0 0.00 0.00 0.00 23 1008.3
20200403014919 78 227 3.0 8.0 0.00 0.00 0.00 23 1008.3
20200403014821 78 238 4.0 8.0 0.00 0.00 0.00 23 1008.3
20200403014624 78 235 3.0 8.0 0.00 0.00 0.00 22 1008.3
20200403014226 78 248 5.0 9.0 0.00 0.00 0.00 22 1008.3
20200403013917 79 233 5.0 9.0 0.00 0.00 0.00 21 1008.2
20200403013827 79 230 4.0 9.0 0.00 0.00 0.00 21 1008.2
20200403013729 79 253 5.0 9.0 0.00 0.00 0.00 21 1008.2
20200403013513 79 238 4.0 7.0 0.00 0.00 0.00 21 1008.4
20200403013428 79 238 4.0 7.0 0.00 0.00 0.00 21 1008.4
20200403013022 79 270 4.0 7.0 0.00 0.00 0.00 21 1008.4
20200403012812 79 243 4.0 8.0 0.00 0.00 0.00 21 1008.3
20200403012722 79 244 4.0 8.0 0.00 0.00 0.00 21 1008.3
20200403012526 80 221 4.0 8.0 0.00 0.00 0.00 21 1008.2
20200403012318 80 243 4.0 8.0 0.00 0.00 0.00 21 1008.2
20200403012226 80 260 3.0 8.0 0.00 0.00 0.00 20 1008.2
20200403011920 80 246 5.0 9.0 0.00 0.00 0.00 20 1008.3
20200403011822 80 250 6.0 9.0 0.00 0.00 0.00 20 1008.3
20200403011726 80 245 5.0 10.0 0.00 0.00 0.00 20 1008.3
20200403011522 80 245 4.0 10.0 0.00 0.00 0.00 20 1008.2
20200403011235 80 236 4.0 11.0 0.00 0.00 0.00 20 1008.2
20200403011122 80 257 4.0 11.0 0.00 0.00 0.00 20 1008.2
20200403011024 81 217 5.0 11.0 0.00 0.00 0.00 19 1008.2
20200403010833 81 222 7.0 11.0 0.00 0.00 0.00 19 1008.1
20200403010716 81 236 6.0 11.0 0.00 0.00 0.00 19 1008.2
20200403010618 81 224 6.0 11.0 0.00 0.00 0.00 19 1008.1
20200403010531 81 240 6.0 11.0 0.00 0.00 0.00 19 1008.1
20200403010316 81 229 5.0 12.0 0.00 0.00 0.00 19 1008.2
20200403010141 81 240 6.0 12.0 0.00 0.00 0.00 18 1008.2
20200403005732 81 253 8.0 12.0 0.00 0.00 0.00 19 1008.2
20200403005518 82 271 7.0 12.0 0.00 0.00 0.00 19 1008.2
20200403005419 82 234 7.0 12.0 0.00 0.00 0.00 19 1008.1
20200403005216 82 325 4.0 12.0 0.00 0.00 0.00 19 1008.0
20200403005117 82 249 5.0 12.0 0.00 0.00 0.00 19 1008.0
20200403004629 82 271 7.0 11.0 0.00 0.00 0.00 19 1008.2
20200403004512 82 274 7.0 12.0 0.00 0.00 0.00 19 1008.2
20200403004415 82 259 5.0 12.0 0.00 0.00 0.00 19 1008.2
20200403004231 82 243 5.0 12.0 0.00 0.00 0.00 19 1008.2
20200403003916 82 245 7.0 12.0 0.00 0.00 0.00 19 1008.1
20200403003826 82 276 8.0 12.0 0.00 0.00 0.00 19 1008.1
20200403003728 82 264 7.0 12.0 0.00 0.00 0.00 19 1008.1
20200403003610 82 258 4.0 11.0 0.00 0.00 0.00 20 1008.1
20200403003512 82 252 5.0 11.0 0.00 0.00 0.00 20 1008.1
20200403003422 82 240 5.0 11.0 0.00 0.00 0.00 20 1008.1
20200403003111 82 264 7.0 11.0 0.00 0.00 0.00 19 1008.2
20200403002812 82 237 6.0 15.0 0.00 0.00 0.00 19 1008.2
20200403002622 82 244 5.0 15.0 0.00 0.00 0.00 19 1008.1
20200403002526 82 221 5.0 15.0 0.00 0.00 0.00 19 1008.1
20200403002411 82 229 6.0 15.0 0.00 0.00 0.00 20 1008.1
20200403002222 82 266 7.0 13.0 0.00 0.00 0.00 19 1008.1
20200403001726 83 239 6.0 10.0 0.00 0.00 0.00 19 1008.1
20200403001636 83 256 5.0 10.0 0.00 0.00 0.00 19 1008.1
20200403001519 83 233 6.0 10.0 0.00 0.00 0.00 19 1008.0
20200403001421 83 211 6.0 12.0 0.00 0.00 0.00 20 1007.9
20200403001328 83 287 7.0 12.0 0.00 0.00 0.00 19 1007.9
20200403001210 83 240 6.0 12.0 0.00 0.00 0.00 19 1008.0
20200403001120 83 226 6.0 12.0 0.00 0.00 0.00 19 1008.0
20200403001022 83 243 5.0 12.0 0.00 0.00 0.00 19 1008.1
20200403000930 83 258 6.0 12.0 0.00 0.00 0.00 19 1008.1
20200403000836 83 274 5.0 12.0 0.00 0.00 0.00 19 1008.0
20200403000721 83 252 7.0 12.0 0.00 0.00 0.00 18 1008.0
20200403000320 83 231 3.0 11.0 0.00 0.00 0.00 19 1008.0
20200403000226 83 231 3.0 11.0 0.00 0.00 0.00 20 1008.1
20200403000213 83 257 4.0 11.0 0.00 0.00 0.00 19 1008.1
20200402235922 83 193 7.0 11.0 0.00 0.00 0.00 19 1008.2
20200402235735 83 248 6.0 11.0 0.00 0.00 0.00 19 1008.1
20200402235611 83 264 5.0 12.0 0.00 0.00 0.00 19 1008.1
20200402235127 83 245 6.0 12.0 0.00 0.00 0.00 19 1008.1
20200402234916 83 237 6.0 12.0 0.00 0.00 0.00 20 1008.3
20200402234729 83 238 8.0 12.0 0.00 0.00 0.00 21 1008.2
20200402234420 83 216 4.0 13.0 0.00 0.00 0.00 22 1008.1
20200402234113 83 266 7.0 13.0 0.00 0.00 0.00 22 1008.1
20200402234022 83 240 8.0 13.0 0.00 0.00 0.00 21 1008.2
20200402233715 83 234 9.0 13.0 0.00 0.00 0.00 21 1008.2
20200402233527 84 214 5.0 13.0 0.00 0.00 0.00 20 1008.2
20200402233410 83 236 6.0 13.0 0.00 0.00 0.00 21 1008.2
20200402233312 83 226 6.0 13.0 0.00 0.00 0.00 20 1008.2
20200402233129 83 273 7.0 13.0 0.00 0.00 0.00 20 1008.2
20200402233012 83 225 7.0 13.0 0.00 0.00 0.00 20 1008.3
20200402232914 83 259 9.0 13.0 0.00 0.00 0.00 20 1008.3
20200402232824 83 281 7.0 13.0 0.00 0.00 0.00 20 1008.3
20200402232614 83 226 7.0 13.0 0.00 0.00 0.00 20 1008.3
20200402232516 83 243 7.0 13.0 0.00 0.00 0.00 19 1008.2
20200402232427 83 232 8.0 13.0 0.00 0.00 0.00 19 1008.2
20200402232329 83 229 8.0 13.0 0.00 0.00 0.00 19 1008.2
20200402232210 84 228 8.0 13.0 0.00 0.00 0.00 19 1008.3
20200402232113 84 248 6.0 14.0 0.00 0.00 0.00 19 1008.3
20200402232028 84 246 5.0 14.0 0.00 0.00 0.00 19 1008.3
20200402231910 84 244 8.0 14.0 0.00 0.00 0.00 19 1008.1
20200402231812 84 236 8.0 14.0 0.00 0.00 0.00 20 1008.2
20200402231721 83 252 8.0 14.0 0.00 0.00 0.00 20 1008.2
20200402231510 84 223 8.0 14.0 0.00 0.00 0.00 20 1008.3
20200402231413 84 278 7.0 14.0 0.00 0.00 0.00 20 1008.3
20200402231011 84 264 7.0 17.0 0.00 0.00 0.00 20 1008.4
20200402230923 84 255 7.0 17.0 0.00 0.00 0.00 20 1008.6
20200402230729 83 330 7.0 17.0 0.00 0.00 0.00 20 1008.4
20200402230612 83 244 8.0 17.0 0.00 0.00 0.00 19 1008.5
20200402230522 83 243 8.0 17.0 0.00 0.00 0.00 19 1008.5
20200402230423 83 250 8.0 17.0 0.00 0.00 0.00 19 1008.5
20200402230211 83 196 11.0 17.0 0.00 0.00 0.00 19 1008.4
20200402225934 83 280 6.0 14.0 0.00 0.00 0.00 20 1008.4
20200402225816 83 231 8.0 14.0 0.00 0.00 0.00 20 1008.4
20200402225722 83 278 8.0 14.0 0.00 0.00 0.00 19 1008.4
20200402225534 84 240 10.0 14.0 0.00 0.00 0.00 20 1008.4
20200402225321 84 226 7.0 14.0 0.00 0.00 0.00 19 1008.4
20200402225110 84 240 9.0 14.0 0.00 0.00 0.00 20 1008.5
20200402224734 84 263 6.0 14.0 0.00 0.00 0.00 19 1008.4
20200402224621 84 283 7.0 14.0 0.00 0.00 0.00 19 1008.4
20200402224523 84 242 7.0 14.0 0.00 0.00 0.00 19 1008.6
20200402224426 84 255 7.0 14.0 0.00 0.00 0.00 19 1008.6
20200402224334 84 229 7.0 14.0 0.00 0.00 0.00 19 1008.4
20200402224032 84 253 8.0 14.0 0.00 0.00 0.00 20 1008.4
20200402223933 84 248 9.0 15.0 0.00 0.00 0.00 19 1008.4
20200402223815 83 278 10.0 15.0 0.00 0.00 0.00 19 1008.4
20200402223618 84 250 7.0 15.0 0.00 0.00 0.00 19 1008.4
20200402223529 84 245 7.0 15.0 0.00 0.00 0.00 20 1008.4
20200402223316 84 261 8.0 15.0 0.00 0.00 0.00 20 1008.4
20200402223129 84 255 11.0 15.0 0.00 0.00 0.00 20 1008.4
20200402222728 84 241 7.0 14.0 0.00 0.00 0.00 20 1008.4
20200402222115 84 250 9.0 14.0 0.00 0.00 0.00 20 1008.7
20200402222023 85 270 9.0 14.0 0.00 0.00 0.00 20 1008.6
20200402221926 85 244 9.0 13.0 0.00 0.00 0.00 20 1008.6
20200402221827 85 237 7.0 13.0 0.00 0.00 0.00 21 1008.6
20200402221623 85 257 5.0 12.0 0.00 0.00 0.00 20 1008.5
20200402221436 85 260 6.0 12.0 0.00 0.00 0.00 21 1008.6
20200402221318 85 212 7.0 12.0 0.00 0.00 0.00 21 1008.5
20200402221218 85 244 7.0 12.0 0.00 0.00 0.00 21 1008.6
20200402221126 85 224 6.0 12.0 0.00 0.00 0.00 21 1008.6
20200402220724 85 214 8.0 17.0 0.00 0.00 0.00 20 1008.4
20200402220634 85 254 8.0 17.0 0.00 0.00 0.00 20 1008.4
20200402220521 85 277 6.0 17.0 0.00 0.00 0.00 20 1008.4
20200402220423 85 215 6.0 17.0 0.00 0.00 0.00 19 1008.3
20200402220324 85 246 6.0 17.0 0.00 0.00 0.00 20 1008.4
20200402220128 84 217 3.0 15.0 0.00 0.00 0.00 20 1008.3
20200402215934 84 186 6.0 15.0 0.00 0.00 0.00 20 1008.5
20200402215817 84 270 6.0 15.0 0.00 0.00 0.00 19 1008.6
20200402215533 85 262 8.0 15.0 0.00 0.00 0.00 20 1008.6
20200402215420 85 248 6.0 12.0 0.00 0.00 0.00 20 1008.6
20200402215322 85 207 6.0 12.0 0.00 0.00 0.00 20 1008.6
20200402215226 85 211 5.0 12.0 0.00 0.00 0.00 20 1008.6
20200402215019 84 275 3.0 14.0 0.00 0.00 0.00 21 1008.4
20200402214829 84 259 5.0 15.0 0.00 0.00 0.00 20 1008.5
20200402214544 84 243 7.0 15.0 0.00 0.00 0.00 20 1008.6
20200402214235 85 263 7.0 15.0 0.00 0.00 0.00 19 1008.6
20200402214121 85 243 6.0 15.0 0.00 0.00 0.00 19 1008.7
20200402214023 85 252 6.0 10.0 0.00 0.00 0.00 20 1008.7
20200402213926 85 232 7.0 10.0 0.00 0.00 0.00 20 1008.7
20200402213834 85 254 7.0 10.0 0.00 0.00 0.00 19 1008.7
20200402213620 85 262 4.0 13.0 0.00 0.00 0.00 20 1008.7
20200402213535 84 256 3.0 13.0 0.00 0.00 0.00 20 1008.7
20200402213320 84 240 5.0 13.0 0.00 0.00 0.00 19 1008.7
20200402213220 84 252 6.0 16.0 0.00 0.00 0.00 19 1008.7
20200402213018 84 203 6.0 16.0 0.00 0.00 0.00 20 1008.7
20200402212921 84 217 8.0 16.0 0.00 0.00 0.00 20 1008.8
20200402212823 84 281 7.0 16.0 0.00 0.00 0.00 20 1008.8
20200402212734 84 257 8.0 16.0 0.00 0.00 0.00 20 1008.8
20200402212616 83 234 9.0 16.0 0.00 0.00 0.00 20 1008.7
20200402212517 83 217 10.0 16.0 0.00 0.00 0.00 20 1008.7
20200402212423 83 256 8.0 16.0 0.00 0.00 0.00 20 1008.7
20200402212119 83 269 8.0 16.0 0.00 0.00 0.00 20 1008.6
20200402211932 83 212 8.0 16.0 0.00 0.00 0.00 21 1008.7
20200402211819 83 275 7.0 16.0 0.00 0.00 0.00 20 1008.7
20200402211626 83 237 10.0 16.0 0.00 0.00 0.00 20 1008.7
20200402211418 84 251 9.0 17.0 0.00 0.00 0.00 20 1008.8
20200402211210 84 214 8.0 17.0 0.00 0.00 0.00 20 1008.8
20200402210926 85 243 7.0 17.0 0.00 0.00 0.00 20 1008.9
20200402210829 84 235 8.0 17.0 0.00 0.00 0.00 20 1008.9
20200402210715 84 217 7.0 17.0 0.00 0.00 0.00 20 1008.9
20200402210626 84 242 5.0 13.0 0.00 0.00 0.00 21 1008.9
20200402210314 84 261 5.0 14.0 0.00 0.00 0.00 21 1008.9
20200402210223 84 252 5.0 14.0 0.00 0.00 0.00 21 1008.8
20200402210121 84 262 7.0 14.0 0.00 0.00 0.00 21 1009.0
20200402210012 84 237 7.0 14.0 0.00 0.00 0.00 20 1008.9
20200402205610 84 222 8.0 17.0 0.00 0.00 0.00 20 1009.0
20200402205526 84 243 8.0 17.0 0.00 0.00 0.00 20 1009.0
20200402205429 84 219 6.0 17.0 0.00 0.00 0.00 21 1009.0
20200402205311 84 211 6.0 17.0 0.00 0.00 0.00 22 1009.0
20200402205214 83 200 8.0 17.0 0.00 0.00 0.00 22 1009.0
20200402205123 83 236 7.0 17.0 0.00 0.00 0.00 22 1008.8
20200402205026 83 213 5.0 12.0 0.00 0.00 0.00 22 1008.8
20200402204821 83 184 6.0 12.0 0.00 0.00 0.00 22 1009.1
20200402204626 83 230 6.0 12.0 0.00 0.00 0.00 21 1009.1
20200402204536 83 213 6.0 12.0 0.00 0.00 0.00 21 1009.2
20200402204423 83 238 5.0 12.0 0.00 0.00 0.00 22 1009.2
20200402204021 83 255 8.0 14.0 0.00 0.00 0.00 22 1009.2
20200402203926 83 278 7.0 14.0 0.00 0.00 0.00 22 1009.2
20200402203812 83 210 6.0 14.0 0.00 0.00 0.00 22 1009.1
20200402203528 82 234 8.0 14.0 0.00 0.00 0.00 21 1009.3
20200402203228 83 257 8.0 15.0 0.00 0.00 0.00 21 1009.5
20200402203110 83 262 5.0 15.0 0.00 0.00 0.00 22 1009.5
20200402202713 82 210 8.0 15.0 0.00 0.00 0.00 22 1009.4
20200402202616 82 205 8.0 15.0 0.00 0.00 0.00 22 1009.5
20200402202429 82 217 9.0 15.0 0.00 0.00 0.00 23 1009.4
20200402202214 82 203 8.0 15.0 0.00 0.00 0.00 23 1009.5
20200402202129 82 190 8.0 15.0 0.00 0.00 0.00 23 1009.5
20200402202012 82 252 7.0 15.0 0.00 0.00 0.00 23 1009.4
20200402201818 82 243 7.0 12.0 0.00 0.00 0.00 23 1009.5
20200402201729 83 243 5.0 12.0 0.00 0.00 0.00 24 1009.5
20200402201612 82 245 6.0 11.0 0.00 0.00 0.00 24 1009.4
20200402201519 82 257 5.0 14.0 0.00 0.00 0.00 23 1009.5
20200402201421 82 233 4.0 14.0 0.00 0.00 0.00 24 1009.5
20200402201117 82 241 5.0 14.0 0.00 0.00 0.00 24 1009.7
20200402200819 82 189 7.0 14.0 0.00 0.00 0.00 24 1009.8
20200402200623 82 170 5.0 10.0 0.00 0.00 0.00 24 1009.6
20200402200421 82 233 6.0 10.0 0.00 0.00 0.00 25 1009.6
20200402200323 82 255 5.0 10.0 0.00 0.00 0.00 24 1009.7
20200402200253 82 276 4.0 10.0 0.00 0.00 0.00 24 1009.7
20200402200237 82 299 3.0 11.0 0.00 0.00 0.00 26 1009.5
20200402195621 81 268 7.0 14.0 0.00 0.00 0.00 25 1009.6
20200402195526 81 268 7.0 14.0 0.00 0.00 0.00 24 1009.6
20200402195435 81 232 7.0 14.0 0.00 0.00 0.00 25 1009.6
20200402195318 82 217 8.0 14.0 0.00 0.00 0.00 24 1009.6
20200402195012 81 243 4.0 13.0 0.00 0.00 0.00 25 1009.6
20200402194922 81 286 5.0 13.0 0.00 0.00 0.00 24 1009.8
20200402194710 81 247 5.0 13.0 0.00 0.00 0.00 25 1009.8
20200402194612 81 221 5.0 13.0 0.00 0.00 0.00 25 1009.8
20200402194522 81 243 6.0 13.0 0.00 0.00 0.00 24 1009.8
20200402194426 81 230 7.0 13.0 0.00 0.00 0.00 24 1009.8
20200402194126 81 176 7.0 15.0 0.00 0.00 0.00 24 1009.9
20200402193910 81 238 8.0 15.0 0.00 0.00 0.00 24 1010.0
20200402193624 81 231 8.0 15.0 0.00 0.00 0.00 24 1010.1
20200402193510 81 231 9.0 15.0 0.00 0.00 0.00 24 1010.2
20200402193323 81 250 7.0 13.0 0.00 0.00 0.00 25 1010.1
20200402192926 81 191 6.0 13.0 0.00 0.00 0.00 25 1010.2
20200402192828 81 191 6.0 13.0 0.00 0.00 0.00 25 1010.1
20200402192711 80 261 6.0 13.0 0.00 0.00 0.00 25 1010.0
20200402192621 80 208 5.0 13.0 0.00 0.00 0.00 26 1010.1
20200402192523 80 212 6.0 13.0 0.00 0.00 0.00 26 1010.1
20200402192410 80 251 5.0 13.0 0.00 0.00 0.00 26 1010.2
20200402192313 80 238 7.0 13.0 0.00 0.00 0.00 27 1010.2
20200402192222 80 228 9.0 13.0 0.00 0.00 0.00 26 1010.2
20200402192028 80 237 8.0 11.0 0.00 0.00 0.00 26 1010.3
20200402191728 81 208 5.0 11.0 0.00 0.00 0.00 26 1010.2
20200402191513 81 265 5.0 12.0 0.00 0.00 0.00 26 1010.2
20200402191422 81 257 4.0 12.0 0.00 0.00 0.00 26 1010.2
20200402191325 80 245 5.0 12.0 0.00 0.00 0.00 26 1010.2
20200402191023 81 238 5.0 12.0 0.00 0.00 0.00 25 1010.3
20200402190927 81 210 6.0 12.0 0.00 0.00 0.00 26 1010.3
20200402190715 81 293 6.0 12.0 0.00 0.00 0.00 26 1010.2
20200402190630 81 228 7.0 12.0 0.00 0.00 0.00 25 1010.2
20200402190416 80 219 5.0 10.0 0.00 0.00 0.00 26 1010.2
20200402190319 80 224 4.0 10.0 0.00 0.00 0.00 26 1010.2
20200402190229 80 230 4.0 10.0 0.00 0.00 0.00 28 1010.2
20200402190127 79 278 4.0 10.0 0.00 0.00 0.00 27 1010.1
20200402190018 79 279 5.0 11.0 0.00 0.00 0.00 26 1010.1
20200402185617 80 287 6.0 12.0 0.00 0.00 0.00 26 1010.2
20200402185532 80 266 6.0 12.0 0.00 0.00 0.00 26 1010.2
20200402185414 80 265 7.0 12.0 0.00 0.00 0.00 26 1010.2
20200402185317 80 257 8.0 12.0 0.00 0.00 0.00 26 1010.2
20200402185211 80 239 7.0 12.0 0.00 0.00 0.00 26 1010.2
20200402185023 80 200 6.0 12.0 0.00 0.00 0.00 25 1010.2
20200402184626 81 231 5.0 9.0 0.00 0.00 0.00 25 1010.3
20200402184536 80 163 5.0 9.0 0.00 0.00 0.00 25 1010.2
20200402184418 80 191 5.0 9.0 0.00 0.00 0.00 25 1010.3
20200402184325 80 199 4.0 9.0 0.00 0.00 0.00 25 1010.3
20200402184021 80 238 5.0 9.0 0.00 0.00 0.00 25 1010.4
20200402183923 80 255 4.0 7.0 0.00 0.00 0.00 26 1010.4
20200402183810 79 219 4.0 9.0 0.00 0.00 0.00 27 1010.3
20200402183714 79 265 2.0 9.0 0.00 0.00 0.00 27 1010.4
20200402183528 79 267 3.0 9.0 0.00 0.00 0.00 28 1010.4
20200402183410 79 269 5.0 9.0 0.00 0.00 0.00 27 1010.4
20200402183313 79 270 5.0 9.0 0.00 0.00 0.00 28 1010.4
20200402183228 79 241 4.0 9.0 0.00 0.00 0.00 28 1010.4
20200402183110 79 271 5.0 9.0 0.00 0.00 0.00 28 1010.5
20200402183013 79 258 5.0 9.0 0.00 0.00 0.00 26 1010.5
20200402182517 78 219 1.0 7.0 0.00 0.00 0.00 27 1010.5
20200402182310 79 221 1.0 7.0 0.00 0.00 0.00 28 1010.6
20200402182213 78 221 3.0 7.0 0.00 0.00 0.00 28 1010.6
20200402181913 78 198 2.0 7.0 0.00 0.00 0.00 28 1010.6
20200402181815 78 180 2.0 7.0 0.00 0.00 0.00 28 1010.6
20200402181725 78 203 3.0 7.0 0.00 0.00 0.00 29 1010.6
20200402181514 77 288 2.0 8.0 0.00 0.00 0.00 29 1010.6
20200402181326 77 270 3.0 8.0 0.00 0.00 0.00 28 1010.6
20200402181230 78 271 4.0 8.0 0.00 0.00 0.00 29 1010.6
20200402181112 77 237 4.0 8.0 0.00 0.00 0.00 30 1010.6
20200402181015 77 248 4.0 8.0 0.00 0.00 0.00 29 1010.6
20200402180812 77 274 4.0 8.0 0.00 0.00 0.00 29 1010.7
20200402180525 78 301 4.0 7.0 0.00 0.00 0.00 28 1010.6
20200402180428 78 264 4.0 7.0 0.00 0.00 0.00 29 1010.7
20200402180140 77 263 3.0 8.0 0.00 0.00 0.00 29 1010.7
20200402175517 77 220 5.0 8.0 0.00 0.00 0.00 28 1010.8
20200402175218 77 215 3.0 6.0 0.00 0.00 0.00 27 1010.8
20200402175031 77 217 2.0 5.0 0.00 0.00 0.00 28 1010.8
20200402174718 76 186 1.0 3.0 0.00 0.00 0.00 29 1010.8
20200402174633 76 181 1.0 3.0 0.00 0.00 0.00 28 1010.8
20200402174518 76 199 0.0 3.0 0.00 0.00 0.00 27 1011.1
20200402174115 76 188 0.0 5.0 0.00 0.00 0.00 29 1011.0
20200402173932 76 188 1.0 5.0 0.00 0.00 0.00 29 1011.1
20200402173620 76 188 1.0 5.0 0.00 0.00 0.00 28 1011.1
20200402173321 76 184 1.0 5.0 0.00 0.00 0.00 29 1011.1
20200402173222 76 189 1.0 5.0 0.00 0.00 0.00 29 1011.2
20200402173133 75 219 2.0 5.0 0.00 0.00 0.00 29 1011.2
20200402172923 75 219 1.0 5.0 0.00 0.00 0.00 28 1011.2
20200402172826 75 264 1.0 4.0 0.00 0.00 0.00 28 1011.2
20200402172736 75 264 2.0 4.0 0.00 0.00 0.00 29 1011.2
20200402172521 75 262 1.0 4.0 0.00 0.00 0.00 29 1011.2
20200402172311 76 276 2.0 4.0 0.00 0.00 0.00 29 1011.2
20200402172122 76 290 1.0 4.0 0.00 0.00 0.00 31 1011.2
20200402172026 76 347 0.0 3.0 0.00 0.00 0.00 29 1011.2
20200402171936 77 359 0.0 3.0 0.00 0.00 0.00 30 1011.2
20200402171628 77 359 0.0 3.0 0.00 0.00 0.00 31 1011.2
20200402171540 77 359 1.0 3.0 0.00 0.00 0.00 32 1011.3
20200402171413 76 359 1.0 3.0 0.00 0.00 0.00 32 1011.2
20200402171315 76 359 0.0 2.0 0.00 0.00 0.00 32 1011.2
20200402171016 76 359 0.0 4.0 0.00 0.00 0.00 31 1011.1
20200402170918 75 359 0.0 4.0 0.00 0.00 0.00 30 1011.1
20200402170828 75 359 0.0 4.0 0.00 0.00 0.00 28 1011.1
20200402170711 76 359 0.0 4.0 0.00 0.00 0.00 28 1011.1
20200402170615 76 359 0.0 4.0 0.00 0.00 0.00 27 1011.1
20200402170518 77 359 1.0 4.0 0.00 0.00 0.00 31 1011.1
20200402170428 76 359 1.0 4.0 0.00 0.00 0.00 31 1011.1
20200402170136 75 325 1.0 3.0 0.00 0.00 0.00 30 1011.1
20200402170010 75 325 0.0 3.0 0.00 0.00 0.00 29 1011.0
20200402165815 76 325 1.0 3.0 0.00 0.00 0.00 30 1011.1
20200402165326 75 324 1.0 4.0 0.00 0.00 0.00 34 1011.1
20200402164925 75 320 1.0 4.0 0.00 0.00 0.00 32 1011.0
20200402164715 75 320 1.0 4.0 0.00 0.00 0.00 31 1011.0
20200402164528 75 319 1.0 4.0 0.00 0.00 0.00 34 1011.0
20200402164410 75 319 1.0 2.0 0.00 0.00 0.00 35 1011.0
20200402164219 74 319 1.0 3.0 0.00 0.00 0.00 36 1010.9
20200402163712 73 319 1.0 3.0 0.00 0.00 0.00 41 1010.9
20200402163515 73 291 1.0 3.0 0.00 0.00 0.00 36 1010.8
20200402163328 73 291 1.0 3.0 0.00 0.00 0.00 36 1010.8
20200402163210 73 290 1.0 2.0 0.00 0.00 0.00 38 1010.8
20200402163116 72 158 0.0 2.0 0.00 0.00 0.00 41 1010.8
20200402162910 71 158 0.0 2.0 0.00 0.00 0.00 34 1010.8
20200402162716 72 158 1.0 2.0 0.00 0.00 0.00 36 1010.9
20200402162514 72 143 1.0 2.0 0.00 0.00 0.00 35 1010.8
20200402162417 72 143 1.0 2.0 0.00 0.00 0.00 36 1010.8
20200402162319 72 143 1.0 2.0 0.00 0.00 0.00 36 1010.9
20200402162229 72 143 0.0 2.0 0.00 0.00 0.00 40 1010.9
20200402162113 71 143 0.0 1.0 0.00 0.00 0.00 40 1010.8
20200402162020 71 143 0.0 1.0 0.00 0.00 0.00 40 1010.9
20200402161626 70 143 0.0 2.0 0.00 0.00 0.00 35 1010.8
20200402161536 70 143 0.0 2.0 0.00 0.00 0.00 34 1010.8
20200402161422 70 143 0.0 2.0 0.00 0.00 0.00 34 1010.9
20200402161020 70 143 1.0 2.0 0.00 0.00 0.00 36 1010.8
20200402160924 70 143 1.0 2.0 0.00 0.00 0.00 36 1010.8
20200402160623 69 148 0.0 1.0 0.00 0.00 0.00 36 1010.7
20200402160526 69 148 0.0 1.0 0.00 0.00 0.00 36 1010.7
20200402160147 68 148 0.0 1.0 0.00 0.00 0.00 38 1010.8
20200402155711 68 148 0.0 1.0 0.00 0.00 0.00 41 1010.7
20200402155426 67 148 0.0 1.0 0.00 0.00 0.00 44 1010.8
20200402155218 67 148 0.0 2.0 0.00 0.00 0.00 44 1010.7
20200402155125 67 148 0.0 2.0 0.00 0.00 0.00 44 1010.7
20200402155027 67 148 0.0 2.0 0.00 0.00 0.00 44 1010.7
20200402154909 67 148 0.0 2.0 0.00 0.00 0.00 45 1010.7
20200402154820 66 148 0.0 2.0 0.00 0.00 0.00 44 1010.7
20200402154722 66 148 0.0 2.0 0.00 0.00 0.00 45 1010.7
20200402154625 66 148 0.0 2.0 0.00 0.00 0.00 45 1010.7
20200402154422 66 148 0.0 2.0 0.00 0.00 0.00 45 1010.7
20200402154325 66 148 0.0 0.0 0.00 0.00 0.00 42 1010.7
20200402154227 66 148 0.0 0.0 0.00 0.00 0.00 41 1010.7
20200402153915 65 148 0.0 0.0 0.00 0.00 0.00 45 1010.7
20200402153817 65 148 0.0 0.0 0.00 0.00 0.00 48 1010.7
20200402153631 64 148 0.0 1.0 0.00 0.00 0.00 50 1010.6
20200402153019 62 148 0.0 1.0 0.00 0.00 0.00 49 1010.6
20200402152922 62 148 0.0 1.0 0.00 0.00 0.00 49 1010.6
20200402152835 62 148 0.0 0.0 0.00 0.00 0.00 49 1010.6
20200402152621 62 148 0.0 2.0 0.00 0.00 0.00 50 1010.7
20200402152434 62 148 0.0 2.0 0.00 0.00 0.00 50 1010.6
20200402152136 61 148 0.0 2.0 0.00 0.00 0.00 51 1010.5
20200402152018 61 148 0.0 2.0 0.00 0.00 0.00 51 1010.6
20200402151710 61 148 0.0 2.0 0.00 0.00 0.00 52 1010.5
20200402151620 61 148 0.0 2.0 0.00 0.00 0.00 52 1010.6
20200402151425 61 148 0.0 2.0 0.00 0.00 0.00 52 1010.5
20200402151335 61 148 0.0 3.0 0.00 0.00 0.00 53 1010.5
20200402150821 60 148 0.0 3.0 0.00 0.00 0.00 54 1010.4
20200402150721 60 148 0.0 3.0 0.00 0.00 0.00 54 1010.4
20200402150625 60 148 1.0 3.0 0.00 0.00 0.00 54 1010.4
20200402150511 60 155 0.0 3.0 0.00 0.00 0.00 54 1010.4
20200402150421 60 126 0.0 2.0 0.00 0.00 0.00 54 1010.4
20200402150129 59 126 0.0 3.0 0.00 0.00 0.00 54 1010.3
20200402150021 59 126 0.0 3.0 0.00 0.00 0.00 54 1010.4
20200402145915 59 119 0.0 3.0 0.00 0.00 0.00 54 1010.3
20200402145826 59 119 0.0 3.0 0.00 0.00 0.00 54 1010.3
20200402145612 59 119 0.0 3.0 0.00 0.00 0.00 54 1010.3
20200402145424 59 119 1.0 3.0 0.00 0.00 0.00 54 1010.3
20200402145311 59 52 0.0 1.0 0.00 0.00 0.00 54 1010.2
20200402145116 59 52 0.0 1.0 0.00 0.00 0.00 54 1010.2
20200402145027 59 52 0.0 1.0 0.00 0.00 0.00 54 1010.2
20200402144818 59 52 0.0 1.0 0.00 0.00 0.00 54 1010.2
20200402144720 59 52 0.0 2.0 0.00 0.00 0.00 54 1010.2
20200402144417 58 43 0.0 3.0 0.00 0.00 0.00 54 1010.2
20200402144319 58 43 0.0 3.0 0.00 0.00 0.00 54 1010.3
20200402143931 58 321 0.0 3.0 0.00 0.00 0.00 54 1010.2
20200402143832 58 231 1.0 3.0 0.00 0.00 0.00 54 1010.2
20200402143715 58 164 1.0 3.0 0.00 0.00 0.00 54 1010.2
20200402143621 58 159 1.0 3.0 0.00 0.00 0.00 54 1010.2
20200402143532 58 159 0.0 3.0 0.00 0.00 0.00 54 1010.2
20200402143415 58 159 0.0 3.0 0.00 0.00 0.00 55 1010.1
20200402143318 58 159 0.0 3.0 0.00 0.00 0.00 55 1010.1
20200402143220 58 159 1.0 4.0 0.00 0.00 0.00 55 1010.1
20200402143130 58 159 2.0 5.0 0.00 0.00 0.00 55 1010.1
20200402143017 58 158 2.0 5.0 0.00 0.00 0.00 55 1010.1
20200402142733 58 136 1.0 5.0 0.00 0.00 0.00 55 1010.0
20200402142425 58 143 3.0 5.0 0.00 0.00 0.00 56 1010.0
20200402142334 58 139 3.0 5.0 0.00 0.00 0.00 56 1010.0
20200402142217 57 138 1.0 4.0 0.00 0.00 0.00 57 1009.9
20200402142119 57 156 1.0 3.0 0.00 0.00 0.00 57 1010.0
20200402142021 57 156 1.0 3.0 0.00 0.00 0.00 57 1010.0
20200402141819 57 156 1.0 3.0 0.00 0.00 0.00 58 1009.9
20200402141721 57 156 2.0 3.0 0.00 0.00 0.00 58 1009.9
20200402141535 57 124 1.0 3.0 0.00 0.00 0.00 59 1009.9
20200402141119 56 124 1.0 3.0 0.00 0.00 0.00 61 1009.8
20200402141020 56 124 1.0 3.0 0.00 0.00 0.00 61 1009.8
20200402140824 56 124 1.0 4.0 0.00 0.00 0.00 62 1009.8
20200402140710 56 124 1.0 4.0 0.00 0.00 0.00 62 1009.8
20200402140425 56 125 1.0 4.0 0.00 0.00 0.00 64 1009.8
20200402140334 56 124 2.0 4.0 0.00 0.00 0.00 64 1009.9
20200402140136 56 125 2.0 4.0 0.00 0.00 0.00 66 1009.8
20200402140035 55 127 2.0 4.0 0.00 0.00 0.00 66 1009.7
20200402135520 55 99 1.0 3.0 0.00 0.00 0.00 67 1009.7
20200402135425 55 110 2.0 3.0 0.00 0.00 0.00 67 1009.7
20200402135327 55 107 2.0 3.0 0.00 0.00 0.00 67 1009.8
20200402135210 55 107 1.0 2.0 0.00 0.00 0.00 67 1009.8
20200402135119 55 107 0.0 2.0 0.00 0.00 0.00 66 1009.8
20200402135026 55 107 1.0 2.0 0.00 0.00 0.00 66 1009.8
20200402134909 55 106 0.0 2.0 0.00 0.00 0.00 66 1009.8
20200402134820 55 106 0.0 2.0 0.00 0.00 0.00 66 1009.6
20200402134722 55 106 0.0 2.0 0.00 0.00 0.00 66 1009.6
20200402134511 54 106 0.0 2.0 0.00 0.00 0.00 65 1009.7
20200402134420 54 103 0.0 2.0 0.00 0.00 0.00 65 1009.6
20200402134322 54 103 1.0 2.0 0.00 0.00 0.00 65 1009.6
20200402134135 54 103 1.0 2.0 0.00 0.00 0.00 64 1009.7
20200402134018 54 103 0.0 0.0 0.00 0.00 0.00 64 1009.7
20200402133828 54 94 0.0 0.0 0.00 0.00 0.00 64 1009.6
20200402133525 54 94 0.0 0.0 0.00 0.00 0.00 64 1009.7
20200402133225 54 94 0.0 0.0 0.00 0.00 0.00 63 1009.6
20200402133129 54 94 0.0 0.0 0.00 0.00 0.00 63 1009.6
20200402132917 54 94 0.0 0.0 0.00 0.00 0.00 63 1009.7
20200402132824 54 94 0.0 0.0 0.00 0.00 0.00 63 1009.7
20200402132516 54 207 0.0 3.0 0.00 0.00 0.00 63 1009.6
20200402132427 54 207 0.0 3.0 0.00 0.00 0.00 62 1009.6
20200402132310 54 207 0.0 3.0 0.00 0.00 0.00 63 1009.6
20200402132217 54 207 0.0 3.0 0.00 0.00 0.00 63 1009.6
20200402132118 54 207 0.0 3.0 0.00 0.00 0.00 63 1009.7
20200402131814 54 207 0.0 2.0 0.00 0.00 0.00 62 1009.6
20200402131725 54 207 0.0 2.0 0.00 0.00 0.00 62 1009.6
20200402131416 54 207 0.0 2.0 0.00 0.00 0.00 62 1009.6
20200402131210 54 207 0.0 3.0 0.00 0.00 0.00 62 1009.6
20200402131020 55 207 0.0 3.0 0.00 0.00 0.00 62 1009.6
20200402130814 55 210 0.0 3.0 0.00 0.00 0.00 62 1009.6
20200402130716 55 210 0.0 3.0 0.00 0.00 0.00 62 1009.6
20200402130619 55 210 1.0 3.0 0.00 0.00 0.00 62 1009.6
20200402130529 55 210 1.0 3.0 0.00 0.00 0.00 62 1009.6
20200402130415 55 196 0.0 1.0 0.00 0.00 0.00 61 1009.5
20200402130122 55 102 0.0 0.0 0.00 0.00 0.00 61 1009.5
20200402130015 55 102 0.0 0.0 0.00 0.00 0.00 61 1009.5
20200402125920 55 102 0.0 0.0 0.00 0.00 0.00 61 1009.4
20200402125831 55 102 0.0 0.0 0.00 0.00 0.00 61 1009.4
20200402125617 55 102 0.0 0.0 0.00 0.00 0.00 61 1009.5
20200402125520 55 102 0.0 0.0 0.00 0.00 0.00 61 1009.4
20200402125430 55 102 0.0 0.0 0.00 0.00 0.00 61 1009.4
20200402125032 55 102 0.0 0.0 0.00 0.00 0.00 60 1009.3
20200402124726 55 102 0.0 0.0 0.00 0.00 0.00 59 1009.3
20200402124636 55 102 0.0 0.0 0.00 0.00 0.00 60 1009.2
20200402124519 55 102 0.0 0.0 0.00 0.00 0.00 60 1009.2
20200402124423 55 102 0.0 0.0 0.00 0.00 0.00 59 1009.1
20200402124212 55 102 0.0 0.0 0.00 0.00 0.00 59 1009.1
20200402124122 55 102 0.0 0.0 0.00 0.00 0.00 59 1009.0
20200402123928 55 102 0.0 0.0 0.00 0.00 0.00 59 1009.1
20200402123810 55 102 0.0 0.0 0.00 0.00 0.00 58 1009.1
20200402123627 55 102 0.0 0.0 0.00 0.00 0.00 58 1009.0
20200402123510 55 102 0.0 0.0 0.00 0.00 0.00 58 1009.0
20200402123413 55 102 0.0 0.0 0.00 0.00 0.00 58 1008.9
20200402123322 55 102 0.0 0.0 0.00 0.00 0.00 58 1008.9
20200402122925 55 102 0.0 0.0 0.00 0.00 0.00 57 1009.0
20200402122522 56 102 0.0 0.0 0.00 0.00 0.00 57 1008.9
20200402122429 56 102 0.0 0.0 0.00 0.00 0.00 57 1008.9
20200402122222 56 102 0.0 0.0 0.00 0.00 0.00 56 1008.9
20200402122125 56 102 0.0 0.0 0.00 0.00 0.00 56 1008.9
20200402122028 56 102 0.0 0.0 0.00 0.00 0.00 56 1008.9
20200402121825 56 102 0.0 0.0 0.00 0.00 0.00 55 1008.8
20200402121728 56 102 0.0 0.0 0.00 0.00 0.00 55 1008.9
20200402121423 56 102 0.0 0.0 0.00 0.00 0.00 55 1008.9
20200402121329 56 102 0.0 0.0 0.00 0.00 0.00 55 1008.9
20200402121211 56 102 0.0 0.0 0.00 0.00 0.00 54 1008.8
20200402121113 56 102 0.0 0.0 0.00 0.00 0.00 54 1008.9
20200402121022 56 102 0.0 0.0 0.00 0.00 0.00 54 1009.0
20200402120828 56 102 0.0 0.0 0.00 0.00 0.00 54 1008.9
20200402120529 56 102 0.0 0.0 0.00 0.00 0.00 53 1008.8
20200402120125 57 102 0.0 0.0 0.00 0.00 0.00 53 1008.9
20200402115810 57 102 0.0 0.0 0.00 0.00 0.00 52 1008.8
20200402115620 57 102 0.0 0.0 0.00 0.00 0.00 52 1008.7
20200402115531 57 102 0.0 0.0 0.00 0.00 0.00 52 1008.7
20200402115317 57 102 0.0 0.0 0.00 0.00 0.00 51 1008.6
20200402115017 57 102 0.0 0.0 0.00 0.00 0.00 51 1008.6
20200402114616 57 102 0.0 0.0 0.00 0.00 0.00 50 1008.6
20200402114519 57 102 0.0 0.0 0.00 0.00 0.00 50 1008.6
20200402114426 58 102 0.0 0.0 0.00 0.00 0.00 50 1008.6
20200402114334 58 102 0.0 0.0 0.00 0.00 0.00 50 1008.6
20200402114224 58 102 0.0 0.0 0.00 0.00 0.00 50 1008.4
20200402114120 58 102 0.0 0.0 0.00 0.00 0.00 49 1008.5
20200402113819 58 102 0.0 0.0 0.00 0.00 0.00 49 1008.5
20200402113515 58 102 0.0 0.0 0.00 0.00 0.00 49 1008.4
20200402113417 58 102 0.0 0.0 0.00 0.00 0.00 49 1008.5
20200402113234 58 102 0.0 0.0 0.00 0.00 0.00 49 1008.4
20200402112922 58 102 0.0 1.0 0.00 0.00 0.00 48 1008.5
20200402112719 58 102 0.0 1.0 0.00 0.00 0.00 48 1008.6
20200402112525 58 102 0.0 1.0 0.00 0.00 0.00 47 1008.5
20200402112319 58 102 0.0 1.0 0.00 0.00 0.00 47 1008.5
20200402112128 59 102 0.0 1.0 0.00 0.00 0.00 48 1008.6
20200402111920 59 102 0.0 2.0 0.00 0.00 0.00 47 1008.4
20200402111727 59 102 0.0 2.0 0.00 0.00 0.00 47 1008.4
20200402111613 59 102 0.0 2.0 0.00 0.00 0.00 47 1008.4
20200402111524 59 102 0.0 2.0 0.00 0.00 0.00 47 1008.4
20200402111427 59 102 0.0 2.0 0.00 0.00 0.00 47 1008.4
20200402111329 59 102 0.0 2.0 0.00 0.00 0.00 46 1008.4
20200402111121 59 95 0.0 0.0 0.00 0.00 0.00 46 1008.4
20200402111029 59 95 0.0 0.0 0.00 0.00 0.00 46 1008.4
20200402110627 59 95 0.0 0.0 0.00 0.00 0.00 44 1008.3
20200402110415 59 95 0.0 0.0 0.00 0.00 0.00 44 1008.2
20200402110125 59 95 0.0 2.0 0.00 0.00 0.00 44 1008.2
20200402105812 60 95 0.0 2.0 0.00 0.00 0.00 43 1008.2
20200402105713 60 95 0.0 2.0 0.00 0.00 0.00 43 1008.2
20200402105624 60 95 0.0 2.0 0.00 0.00 0.00 43 1008.2
20200402105410 60 95 0.0 1.0 0.00 0.00 0.00 43 1008.2
20200402105316 60 95 0.0 0.0 0.00 0.00 0.00 43 1008.3
20200402105227 60 94 0.0 0.0 0.00 0.00 0.00 43 1008.3
20200402105110 60 94 0.0 0.0 0.00 0.00 0.00 42 1008.2
20200402104915 60 94 0.0 0.0 0.00 0.00 0.00 42 1008.1
20200402104825 60 94 0.0 0.0 0.00 0.00 0.00 42 1008.1
20200402104712 60 94 0.0 0.0 0.00 0.00 0.00 42 1008.1
20200402104614 60 94 0.0 0.0 0.00 0.00 0.00 42 1008.2
20200402104525 60 94 0.0 0.0 0.00 0.00 0.00 42 1008.2
20200402104213 60 94 0.0 0.0 0.00 0.00 0.00 41 1008.2
20200402103815 60 94 0.0 0.0 0.00 0.00 0.00 41 1008.2
20200402103726 60 94 0.0 0.0 0.00 0.00 0.00 41 1008.2
20200402103329 60 94 0.0 0.0 0.00 0.00 0.00 40 1008.1
20200402103211 60 94 0.0 0.0 0.00 0.00 0.00 40 1008.1
20200402103113 60 94 0.0 2.0 0.00 0.00 0.00 40 1008.2
20200402103019 60 94 0.0 2.0 0.00 0.00 0.00 40 1008.1
20200402102929 60 94 0.0 4.0 0.00 0.00 0.00 40 1008.1
20200402102813 60 94 0.0 4.0 0.00 0.00 0.00 40 1008.1
20200402102716 60 94 0.0 4.0 0.00 0.00 0.00 40 1008.1
20200402102618 60 94 0.0 4.0 0.00 0.00 0.00 40 1008.0
20200402102528 60 94 0.0 4.0 0.00 0.00 0.00 40 1008.0
20200402102415 60 94 0.0 4.0 0.00 0.00 0.00 41 1008.0
20200402102318 60 94 0.0 4.0 0.00 0.00 0.00 40 1007.9
20200402102112 61 96 1.0 4.0 0.00 0.00 0.00 40 1008.0
20200402101812 61 109 1.0 4.0 0.00 0.00 0.00 41 1007.9
20200402101714 61 109 2.0 4.0 0.00 0.00 0.00 41 1007.9
20200402101526 61 114 2.0 4.0 0.00 0.00 0.00 41 1008.0
20200402101219 61 320 0.0 3.0 0.00 0.00 0.00 41 1008.0
20200402101012 61 320 1.0 3.0 0.00 0.00 0.00 41 1007.9
20200402100915 61 320 1.0 3.0 0.00 0.00 0.00 41 1007.9
20200402100728 61 320 1.0 2.0 0.00 0.00 0.00 40 1007.9
20200402100614 61 320 0.0 2.0 0.00 0.00 0.00 40 1007.9
20200402100516 61 320 0.0 0.0 0.00 0.00 0.00 40 1007.9
20200402100419 61 320 0.0 0.0 0.00 0.00 0.00 39 1007.9
20200402100329 61 320 0.0 0.0 0.00 0.00 0.00 39 1007.9
20200402100131 61 320 0.0 0.0 0.00 0.00 0.00 39 1007.9
20200402100029 61 320 0.0 0.0 0.00 0.00 0.00 39 1007.9
20200402095626 61 320 0.0 0.0 0.00 0.00 0.00 39 1007.8
20200402095513 61 320 0.0 0.0 0.00 0.00 0.00 39 1007.9
20200402095415 61 320 0.0 0.0 0.00 0.00 0.00 39 1007.9
20200402095318 61 320 0.0 0.0 0.00 0.00 0.00 39 1007.9
20200402095015 62 320 0.0 0.0 0.00 0.00 0.00 39 1007.9
20200402094921 62 320 0.0 0.0 0.00 0.00 0.00 39 1007.9
20200402094714 62 320 0.0 3.0 0.00 0.00 0.00 37 1007.9
20200402094519 62 320 0.0 3.0 0.00 0.00 0.00 38 1007.9
20200402094218 62 320 0.0 3.0 0.00 0.00 0.00 37 1007.9
20200402094032 62 320 1.0 3.0 0.00 0.00 0.00 37 1007.9
20200402093846 62 320 0.0 0.0 0.00 0.00 0.00 38 1007.9
20200402093632 62 320 0.0 3.0 0.00 0.00 0.00 38 1008.0
20200402093516 62 320 0.0 3.0 0.00 0.00 0.00 38 1007.9
20200402093418 62 320 0.0 3.0 0.00 0.00 0.00 38 1007.9
20200402093320 62 320 0.0 3.0 0.00 0.00 0.00 38 1007.9
20200402093021 62 320 0.0 4.0 0.00 0.00 0.00 38 1008.0
20200402092924 62 320 0.0 4.0 0.00 0.00 0.00 38 1008.0
20200402092716 62 320 0.0 4.0 0.00 0.00 0.00 38 1008.0
20200402092621 62 320 0.0 4.0 0.00 0.00 0.00 38 1008.1
20200402092526 62 320 1.0 4.0 0.00 0.00 0.00 38 1008.1
20200402092412 62 320 2.0 4.0 0.00 0.00 0.00 39 1008.0
20200402091821 63 320 2.0 4.0 0.00 0.00 0.00 39 1007.9
20200402091636 63 317 1.0 4.0 0.00 0.00 0.00 38 1008.0
20200402091425 63 335 1.0 4.0 0.00 0.00 0.00 38 1008.0
20200402091328 63 342 1.0 4.0 0.00 0.00 0.00 38 1008.0
20200402091210 64 318 2.0 4.0 0.00 0.00 0.00 37 1007.9
20200402091120 64 318 2.0 4.0 0.00 0.00 0.00 37 1007.9
20200402091024 64 318 2.0 4.0 0.00 0.00 0.00 36 1007.9
20200402090926 64 317 2.0 4.0 0.00 0.00 0.00 36 1007.9
20200402090812 64 345 2.0 4.0 0.00 0.00 0.00 36 1007.9
20200402090722 64 319 2.0 4.0 0.00 0.00 0.00 36 1007.9
20200402090526 64 316 2.0 3.0 0.00 0.00 0.00 36 1007.9
20200402090145 65 294 1.0 3.0 0.00 0.00 0.00 34 1007.9
20200402090017 65 294 1.0 3.0 0.00 0.00 0.00 34 1008.0
20200402085920 65 294 1.0 3.0 0.00 0.00 0.00 34 1007.9
20200402085822 65 293 1.0 3.0 0.00 0.00 0.00 34 1007.9
20200402084919 65 290 1.0 3.0 0.00 0.00 0.00 32 1007.8
20200402084822 65 290 0.0 2.0 0.00 0.00 0.00 32 1007.8
20200402084425 66 283 1.0 3.0 0.00 0.00 0.00 32 1007.8
20200402084024 66 283 1.0 3.0 0.00 0.00 0.00 32 1007.8
20200402083813 66 283 1.0 3.0 0.00 0.00 0.00 32 1007.8
20200402083535 66 283 1.0 3.0 0.00 0.00 0.00 32 1007.8
20200402083415 66 290 1.0 3.0 0.00 0.00 0.00 32 1007.8
20200402083325 66 279 0.0 3.0 0.00 0.00 0.00 32 1007.8
20200402083110 66 279 1.0 3.0 0.00 0.00 0.00 32 1007.8
20200402083013 66 279 1.0 3.0 0.00 0.00 0.00 32 1007.7
20200402082810 66 279 1.0 3.0 0.00 0.00 0.00 32 1007.8
20200402082712 66 276 1.0 3.0 0.00 0.00 0.00 32 1007.9
20200402082429 67 276 1.0 4.0 0.00 0.00 0.00 32 1007.8
20200402082227 67 282 1.0 4.0 0.00 0.00 0.00 32 1007.8
20200402082012 67 293 1.0 4.0 0.00 0.00 0.00 32 1007.9
20200402081913 67 299 1.0 4.0 0.00 0.00 0.00 32 1007.8